| time (UTC) | temp C | wind direction | speed KPH | gust KPH | rain 1hr cm | rain 24hr cm | rain mn cm | humidity % | barometer mb |
| 20260509201549 | 12 | 190 | 1.6 | 12.9 | 0.00 | 0.00 | 0.00 | 71 | 1022.9 |
| 20260509200103 | 12 | 190 | 0.0 | 9.7 | 0.00 | 0.00 | 0.00 | 71 | 1023.0 |
| 20260509194546 | 12 | 190 | 0.0 | 8.0 | 0.00 | 0.00 | 0.00 | 70 | 1023.1 |
| 20260509193046 | 12 | 190 | 0.0 | 12.9 | 0.00 | 0.00 | 0.00 | 69 | 1023.2 |
| 20260509191545 | 12 | 190 | 3.2 | 12.9 | 0.00 | 0.00 | 0.00 | 68 | 1023.3 |
| 20260509190045 | 12 | 190 | 0.0 | 4.8 | 0.00 | 0.00 | 0.00 | 67 | 1023.5 |
| 20260509184556 | 13 | 190 | 1.6 | 14.5 | 0.00 | 0.00 | 0.00 | 64 | 1023.5 |
| 20260509183044 | 13 | 190 | 0.0 | 12.9 | 0.00 | 0.00 | 0.00 | 62 | 1023.6 |
| 20260509181549 | 15 | 190 | 0.0 | 17.7 | 0.00 | 0.00 | 0.00 | 60 | 1023.6 |
| 20260509180043 | 15 | 190 | 4.8 | 17.7 | 0.00 | 0.00 | 0.00 | 58 | 1023.5 |
| 20260509174541 | 15 | 190 | 1.6 | 16.1 | 0.00 | 0.00 | 0.00 | 59 | 1023.4 |
| 20260509173049 | 13 | 190 | 0.0 | 0.0 | 0.00 | 0.00 | 0.00 | 61 | 1023.3 |
| 20260509171541 | 13 | 190 | 0.0 | 0.0 | 0.00 | 0.00 | 0.00 | 63 | 1023.5 |
| 20260509170041 | 14 | 190 | 0.0 | 0.0 | 0.00 | 0.00 | 0.00 | 61 | 1023.3 |
| 20260509164540 | 15 | 190 | 0.0 | 0.0 | 0.00 | 0.00 | 0.00 | 59 | 1023.4 |
| 20260509163040 | 15 | 190 | 0.0 | 12.9 | 0.00 | 0.00 | 0.00 | 56 | 1023.2 |
| 20260509161539 | 16 | 190 | 1.6 | 8.0 | 0.00 | 0.00 | 0.00 | 55 | 1023.0 |
| 20260509160043 | 17 | 190 | 0.0 | 8.0 | 0.00 | 0.00 | 0.00 | 52 | 1022.8 |
| 20260509154540 | 17 | 190 | 3.2 | 9.7 | 0.00 | 0.00 | 0.00 | 49 | 1022.7 |
| 20260509153044 | 18 | 190 | 8.0 | 12.9 | 0.00 | 0.00 | 0.00 | 46 | 1022.6 |
| 20260509151536 | 20 | 190 | 11.3 | 20.9 | 0.00 | 0.00 | 0.00 | 43 | 1022.6 |
| 20260509150040 | 20 | 156 | 12.9 | 20.9 | 0.00 | 0.00 | 0.00 | 42 | 1022.6 |
| 20260509144550 | 21 | 169 | 12.9 | 27.4 | 0.00 | 0.00 | 0.00 | 40 | 1022.5 |
| 20260509143036 | 21 | 163 | 12.9 | 24.1 | 0.00 | 0.00 | 0.00 | 38 | 1022.5 |
| 20260509141538 | 21 | 144 | 12.9 | 22.5 | 0.00 | 0.00 | 0.00 | 37 | 1022.5 |
| 20260509140034 | 21 | 122 | 16.1 | 32.2 | 0.00 | 0.00 | 0.00 | 36 | 1022.6 |
| 20260509134556 | 21 | 153 | 17.7 | 29.0 | 0.00 | 0.00 | 0.00 | 37 | 1022.6 |
| 20260509133034 | 21 | 139 | 11.3 | 25.7 | 0.00 | 0.00 | 0.00 | 36 | 1022.6 |
| 20260509131530 | 21 | 127 | 12.9 | 30.6 | 0.00 | 0.00 | 0.00 | 37 | 1022.9 |
| 20260509130031 | 21 | 114 | 14.5 | 25.7 | 0.00 | 0.00 | 0.00 | 36 | 1023.0 |
| 20260509124533 | 21 | 143 | 12.9 | 27.4 | 0.00 | 0.00 | 0.00 | 37 | 1023.1 |
| 20260509123026 | 21 | 119 | 16.1 | 27.4 | 0.00 | 0.00 | 0.00 | 38 | 1023.4 |
| 20260509121538 | 21 | 132 | 17.7 | 29.0 | 0.00 | 0.00 | 0.00 | 38 | 1023.6 |
| 20260509120020 | 21 | 118 | 12.9 | 32.2 | 0.00 | 0.00 | 0.00 | 38 | 1023.9 |
| 20260509114529 | 21 | 114 | 9.7 | 35.4 | 0.00 | 0.00 | 0.00 | 39 | 1024.2 |
| 20260509113022 | 20 | 190 | 11.3 | 25.7 | 0.00 | 0.00 | 0.00 | 39 | 1024.5 |
| 20260509111512 | 21 | 145 | 16.1 | 27.4 | 0.00 | 0.00 | 0.00 | 42 | 1024.8 |
| 20260509110007 | 20 | 134 | 9.7 | 20.9 | 0.00 | 0.00 | 0.00 | 43 | 1025.1 |
| 20260509104504 | 19 | 190 | 8.0 | 24.1 | 0.00 | 0.00 | 0.00 | 43 | 1025.5 |
| 20260509103106 | 19 | 190 | 0.0 | 17.7 | 0.00 | 0.00 | 0.00 | 43 | 1025.9 |
| 20260509101657 | 18 | 190 | 1.6 | 22.5 | 0.00 | 0.00 | 0.00 | 42 | 1026.3 |
| 20260509100057 | 18 | 190 | 3.2 | 20.9 | 0.00 | 0.00 | 0.00 | 43 | 1026.9 |
| 20260509094559 | 18 | 190 | 1.6 | 19.3 | 0.00 | 0.00 | 0.00 | 44 | 1027.3 |
| 20260509093054 | 18 | 190 | 3.2 | 24.1 | 0.00 | 0.00 | 0.00 | 43 | 1027.6 |
| 20260509091548 | 17 | 190 | 0.0 | 17.7 | 0.00 | 0.00 | 0.00 | 45 | 1027.7 |
| 20260509090044 | 17 | 190 | 3.2 | 20.9 | 0.00 | 0.00 | 0.00 | 47 | 1028.1 |
| 20260509084544 | 16 | 190 | 0.0 | 12.9 | 0.00 | 0.00 | 0.00 | 49 | 1028.3 |
| 20260509083036 | 15 | 190 | 0.0 | 14.5 | 0.00 | 0.00 | 0.00 | 52 | 1028.7 |
| 20260509081538 | 14 | 190 | 0.0 | 6.4 | 0.00 | 0.00 | 0.00 | 58 | 1029.0 |
| 20260509080028 | 13 | 190 | 0.0 | 8.0 | 0.00 | 0.00 | 0.00 | 63 | 1029.1 |
| 20260509074534 | 12 | 190 | 0.0 | 1.6 | 0.00 | 0.00 | 0.00 | 69 | 1029.2 |
| 20260509073018 | 11 | 190 | 0.0 | 3.2 | 0.00 | 0.00 | 0.00 | 74 | 1029.1 |
| 20260509071513 | 10 | 190 | 0.0 | 3.2 | 0.00 | 0.00 | 0.00 | 78 | 1029.2 |
| 20260509070012 | 8 | 190 | 0.0 | 0.0 | 0.00 | 0.00 | 0.00 | 82 | 1029.1 |
| 20260509064505 | 7 | 190 | 0.0 | 8.0 | 0.00 | 0.00 | 0.00 | 86 | 1029.2 |
| 20260509063001 | 7 | 190 | 0.0 | 1.6 | 0.00 | 0.00 | 0.00 | 89 | 1029.0 |
| 20260509061556 | 6 | 190 | 0.0 | 0.0 | 0.00 | 0.00 | 0.00 | 91 | 1029.0 |
| 20260509060053 | 5 | 190 | 0.0 | 0.0 | 0.00 | 0.00 | 0.00 | 91 | 1028.9 |
| 20260509054559 | 4 | 190 | 0.0 | 0.0 | 0.00 | 0.00 | 0.00 | 92 | 1028.8 |
| 20260509053051 | 3 | 190 | 0.0 | 0.0 | 0.00 | 0.00 | 0.00 | 92 | 1028.6 |
| 20260509051551 | 2 | 190 | 0.0 | 0.0 | 0.00 | 0.00 | 0.00 | 92 | 1028.6 |
| 20260509050046 | 2 | 190 | 0.0 | 0.0 | 0.00 | 0.00 | 0.00 | 92 | 1028.6 |
| 20260509044545 | 2 | 87 | 0.0 | 0.0 | 0.00 | 0.00 | 0.00 | 91 | 1028.4 |
| 20260509043044 | 2 | 190 | 0.0 | 0.0 | 0.00 | 0.00 | 0.00 | 91 | 1028.2 |
| 20260509041610 | 2 | 190 | 0.0 | 0.0 | 0.00 | 0.00 | 0.00 | 91 | 1028.1 |
| 20260509040044 | 2 | 87 | 0.0 | 0.0 | 0.00 | 0.00 | 0.00 | 91 | 1028.1 |
| 20260509034542 | 2 | 190 | 0.0 | 0.0 | 0.00 | 0.00 | 0.00 | 91 | 1028.1 |
| 20260509033041 | 2 | 88 | 0.0 | 0.0 | 0.00 | 0.00 | 0.00 | 92 | 1028.0 |
| 20260509031540 | 2 | 190 | 0.0 | 0.0 | 0.00 | 0.00 | 0.00 | 91 | 1028.0 |
| 20260509030040 | 2 | 87 | 0.0 | 0.0 | 0.00 | 0.00 | 0.00 | 91 | 1027.9 |
| 20260509024539 | 2 | 87 | 0.0 | 0.0 | 0.00 | 0.00 | 0.00 | 91 | 1027.9 |
| 20260509023048 | 2 | 87 | 0.0 | 0.0 | 0.00 | 0.00 | 0.00 | 91 | 1027.6 |
| 20260509021537 | 2 | 88 | 0.0 | 0.0 | 0.00 | 0.00 | 0.00 | 91 | 1027.7 |
| 20260509020045 | 3 | 88 | 0.0 | 0.0 | 0.00 | 0.00 | 0.00 | 91 | 1027.8 |
| 20260509014533 | 3 | 87 | 0.0 | 0.0 | 0.00 | 0.00 | 0.00 | 91 | 1027.8 |
| 20260509013041 | 3 | 87 | 0.0 | 0.0 | 0.00 | 0.00 | 0.00 | 91 | 1028.0 |
| 20260509011533 | 3 | 88 | 0.0 | 0.0 | 0.00 | 0.00 | 0.00 | 91 | 1028.1 |
| 20260509010030 | 3 | 88 | 0.0 | 0.0 | 0.00 | 0.00 | 0.00 | 91 | 1028.3 |
| 20260509004533 | 3 | 190 | 0.0 | 0.0 | 0.00 | 0.00 | 0.00 | 91 | 1028.4 |
| 20260509003030 | 3 | 88 | 0.0 | 0.0 | 0.00 | 0.00 | 0.00 | 91 | 1028.5 |
| 20260509001527 | 3 | 87 | 0.0 | 0.0 | 0.00 | 0.00 | 0.00 | 91 | 1028.6 |
| 20260509000025 | 3 | 88 | 0.0 | 0.0 | 0.00 | 0.00 | 0.00 | 91 | 1028.4 |
| 20260508234529 | 3 | 190 | 0.0 | 0.0 | 0.00 | 0.00 | 0.00 | 91 | 1028.4 |
| 20260508233024 | 3 | 87 | 0.0 | 0.0 | 0.00 | 0.00 | 0.00 | 91 | 1028.5 |
| 20260508231523 | 3 | 190 | 0.0 | 0.0 | 0.00 | 0.00 | 0.00 | 91 | 1028.4 |
| 20260508230033 | 3 | 88 | 0.0 | 0.0 | 0.00 | 0.00 | 0.00 | 91 | 1028.2 |
| 20260508224526 | 3 | 88 | 0.0 | 0.0 | 0.00 | 0.00 | 0.00 | 91 | 1028.2 |
| 20260508223027 | 3 | 190 | 0.0 | 0.0 | 0.00 | 0.00 | 0.00 | 90 | 1028.3 |
| 20260508221519 | 4 | 87 | 0.0 | 0.0 | 0.00 | 0.00 | 0.00 | 90 | 1028.3 |
| 20260508220025 | 4 | 87 | 0.0 | 0.0 | 0.00 | 0.00 | 0.00 | 90 | 1028.5 |
| 20260508214525 | 4 | 88 | 0.0 | 0.0 | 0.00 | 0.00 | 0.00 | 89 | 1028.8 |
| 20260508213016 | 5 | 87 | 0.0 | 0.0 | 0.00 | 0.00 | 0.00 | 89 | 1028.8 |
| 20260508211527 | 5 | 87 | 0.0 | 0.0 | 0.00 | 0.00 | 0.00 | 89 | 1028.8 |
| 20260508210015 | 5 | 190 | 0.0 | 0.0 | 0.00 | 0.00 | 0.00 | 88 | 1028.9 |
| 20260508204514 | 5 | 190 | 0.0 | 0.0 | 0.00 | 0.00 | 0.00 | 88 | 1028.9 |
| 20260508203013 | 5 | 190 | 0.0 | 0.0 | 0.00 | 0.00 | 0.00 | 87 | 1029.0 |